Location: Basarabasa
(46.2000°N, 22.5833°E)
Time: 05:51:02
(UTC+00:00)

Daily predictions for brighter satellites

Satellite Brightness Start Highest point End
(mag) Time Altitude Azimuth Time Altitude Azimuth Time Altitude Azimuth
ARGOS Delta rocket 4.1 00:00:48 10° NNE 00:06:20 85° ESE 00:09:23 27° S
Resurs 1-4 Rocket 2.2 00:01:11 10° NNE 00:06:31 71° ESE 00:09:34 26° S
Cosmos 841 Rocket 4.2 00:06:13 23° WSW 00:09:00 44° WNW 00:13:56 10° N
NOSS 2-2 (C) 3.1 00:08:26 37° WSW 00:09:38 68° NW 00:13:22 10° NE
NOSS 5 (C) 4.2 00:08:07 10° NW 00:11:14 82° SW 00:13:51 18° SE
ADEOS II 3.2 00:07:13 10° NNE 00:12:07 38° E 00:15:59 15° SSE
ADEOS Rocket 3.8 00:05:39 10° SE 00:12:36 58° ENE 00:18:53 10° N
Cosmos 1606 3.4 00:13:03 10° NNW 00:16:35 36° W 00:17:30 31° SW
USA 215 4.5 00:11:48 10° NE 00:17:48 41° NNW 00:23:49 10° W
Cosmos 1151 Rocket 4.2 00:14:03 10° N 00:18:05 40° ENE 00:22:05 10° SE
USA 290 3.1 00:18:17 30° WSW 00:19:12 38° WNW 00:22:14 10° N
IDEFIX/ARIANE 42P 4.3 00:16:45 10° NE 00:21:03 25° E 00:25:18 10° SSE
MOZ.5/SAFIR/RUBIN 5/SL-8 4.4 00:20:12 28° SSW 00:22:09 41° W 00:26:42 10° NNW
Cosmos 1782 3.6 00:18:32 10° N 00:22:27 49° ENE 00:25:50 13° SSE
Cosmos 1242 Rocket 4.0 00:24:02 10° NW 00:26:53 22° W 00:27:23 21° WSW
DELTA 2 R/B (1) 3.9 00:28:14 13° WSW 00:32:45 40° S 00:37:55 10° ESE
Cosmos 921 Rocket 4.4 00:31:04 18° WSW 00:33:16 27° WNW 00:36:51 10° N
CZ-2D R/B 2.1 00:30:02 10° N 00:35:14 69° WNW 00:38:34 22° SSW
NPP 3.6 00:29:49 10° NNE 00:35:14 84° WNW 00:38:53 21° SSW
Cosmos 2151 3.2 00:34:04 27° SW 00:36:08 54° WNW 00:40:16 10° N
Cosmos 1766 Rocket 3.9 00:37:09 18° S 00:40:22 62° E 00:44:49 10° NNE
Landsat 4 4.2 00:39:14 10° NNE 00:42:58 55° ESE 00:45:29 19° S
AQUA 3.8 00:39:15 10° NNE 00:44:02 82° WNW 00:47:16 21° SSW
USA 307 3.9 00:41:16 10° W 00:45:21 44° NNW 00:49:27 10° NE
CENTAUR R/B 3.8 00:39:30 10° NW 00:47:25 60° NE 00:56:09 10° SE
Cosmos 2292 Rocket 2.6 00:46:55 31° SSW 00:48:09 66° W 00:51:13 10° N
X-37B 2.1 00:49:39 21° S 00:49:39 21° S 00:51:12 10° SSE
FALCON 9 DEB 2.9 00:45:48 10° WNW 00:48:53 54° SW 00:51:55 10° SE
DELTA 2 DEB (DPAF) 4.4 00:44:29 10° SSE 00:48:54 69° ENE 00:53:20 10° N
OE (NEXTSAT) 4.2 00:46:04 10° W 00:49:30 70° SSW 00:52:55 10° ESE
USA 267 4.4 00:51:01 18° SW 00:52:46 20° WSW 00:57:24 10° WNW
SL-16 R/B 2.9 00:48:36 17° SSW 00:53:08 46° W 00:59:05 10° NNW
Cosmos 2298 Rocket 4.4 00:49:41 10° NNW 00:54:44 44° WSW 00:58:47 15° S
USA 238 DEB 4.4 00:50:16 10° NW 00:57:28 65° NE 01:04:58 10° SE
USA 238 4.4 00:50:23 10° NW 00:57:34 64° NE 01:05:06 10° SE
SL-19 R/B 4.2 00:54:22 10° N 00:59:38 71° WNW 01:03:59 17° SSW
Cosmos 1933 4.2 00:56:08 10° NNW 00:59:52 35° W 01:02:08 20° SW
FALCON 9 DEB 3.6 00:57:59 10° WNW 01:00:45 30° SW 01:03:29 10° SSE
Okean 3 Rocket 3.5 00:57:46 17° S 01:01:03 83° W 01:05:27 10° N
USA 308 4.1 00:57:35 10° W 01:01:36 39° NNW 01:05:36 10° NE
ASTEX 1 3.7 00:58:39 10° SSE 01:03:32 67° E 01:08:26 10° N
Cosmos 1125 Rocket 3.8 00:59:07 10° NNW 01:04:09 47° WSW 01:09:05 11° S
Cosmos 1656 3.8 00:58:26 10° NNW 01:04:11 81° ENE 01:09:52 10° SSE
IRIDIUM 104 4.4 00:59:10 10° N 01:04:19 62° W 01:08:49 14° SSW
Helios 1B rocket 3.2 01:00:47 10° N 01:04:37 39° WNW 01:07:17 17° SW
Cosmos 2084 Rocket 3.9 01:02:35 17° S 01:05:16 44° ESE 01:09:05 10° NE
CZ-4C R/B 2.2 01:03:33 17° SSW 01:07:16 68° ESE 01:13:04 10° NE
SL-4 R/B 1.6 01:04:28 10° WNW 01:08:08 87° NNE 01:11:36 10° ESE
Meteor 1-29 3.1 01:05:22 10° N 01:08:44 59° WNW 01:11:00 19° SSW
Cosmos 44 4.4 01:05:54 12° S 01:10:26 42° ESE 01:15:33 10° NE
FALCON 9 DEB 3.6 01:08:59 10° WNW 01:11:48 31° SW 01:14:36 10° SSE
FALCON 9 DEB 3.8 01:09:27 10° W 01:12:06 26° SW 01:14:43 10° SSE
Meteor 2-3 Rocket 4.2 01:07:54 16° SW 01:12:06 46° WNW 01:17:28 10° N
ARIANE 5 R/B 3.7 01:10:08 10° NNE 01:14:48 37° E 01:19:26 10° SSE
COSMOS 2406 4.0 01:11:15 10° S 01:16:38 48° ESE 01:22:04 10° NE
USA 305 4.4 01:13:55 10° W 01:17:48 34° NNW 01:21:42 10° NE
Lacrosse 5 rocket 0.9 01:15:47 10° NW 01:19:23 70° SW 01:23:04 10° SE
Cosmos 1862 3.3 01:17:12 12° S 01:20:59 88° E 01:25:04 10° N
Cosmos 1655 Rocket 4.0 01:15:26 11° SSW 01:21:27 77° W 01:27:45 10° N
Cosmos 1812 2.8 01:23:54 10° NNW 01:27:42 60° W 01:31:28 10° S
CZ-2C R/B 4.4 01:24:15 10° NE 01:28:16 25° E 01:32:09 10° SSE
Tianhe-1 2.4 01:26:37 15° SSW 01:28:25 25° SSE 01:31:04 10° ESE
Cosmos 1697 Rocket 3.1 01:22:54 10° NNW 01:28:34 67° ENE 01:34:12 10° SE
USA 281 3.2 01:25:12 10° SSE 01:31:46 86° WSW 01:38:24 10° NNW
ERBS 3.6 01:30:34 10° W 01:33:32 33° NNW 01:36:32 10° NE
ATLAS 5 CENTAUR R/B 3.7 01:34:40 10° WNW 01:37:44 19° NNW 01:41:07 10° NNE
Cosmos 1271 Rocket 3.7 01:36:08 10° NNW 01:39:24 29° W 01:42:41 10° SSW
CZ-3B R/B 1.3 01:35:07 10° NW 01:39:26 84° NNE 01:41:41 10° ESE
Cosmos 1328 Rocket 4.3 01:37:16 10° NNW 01:41:14 35° W 01:45:13 10° SSW
Cosmos 2315 Rocket 4.0 01:35:25 10° N 01:41:38 82° W 01:47:51 10° S
Cosmos 1500 Rocket 3.6 01:39:11 10° S 01:43:30 79° E 01:47:49 10° NNE
IRS-P3 4.2 01:39:41 10° NNE 01:45:03 87° ESE 01:50:23 10° SSW
Resurs 1-4 Rocket 3.9 01:42:06 10° NNW 01:45:46 19° WNW 01:49:27 10° WSW
Cosmos 1743 Rocket 3.6 01:44:36 10° S 01:49:00 88° ESE 01:53:28 10° N
ADEOS II 3.1 01:47:04 10° N 01:51:43 32° WNW 01:56:20 10° SW
ADEOS Rocket 4.2 01:52:14 10° SSW 01:58:19 30° W 02:03:59 10° NW
Cosmos 1833 Rocket 2.8 01:52:54 10° SSW 01:58:33 80° WNW 02:04:14 10° NNE
Cosmos 1980 Rocket 2.8 01:54:10 10° NNW 01:59:44 63° ENE 02:05:17 10° SE
IDEFIX/ARIANE 42P 3.1 01:55:51 10° N 02:00:51 47° WNW 02:05:49 10° SW
